吉利星座1组08星 (GEESAT-1 08)

导读

GEESAT 1-08是吉利科技集团旗下时空道宇研制的GEESAT 1系列卫星之一,由中国于北京时间2022年6月2日8时在西昌卫星发射中心发射,成功进入近地轨道。GEESAT 1是中国首个模块化、高韧性、高性能批量生产的低轨商业卫星,GEESAT 1-08同其余八颗卫星一同作为首发组网星,将推动我国低轨卫星互联网建设,服务智能出行等商用领域。

基本信息
目录编号:
52792
目录名称:
GEESAT 1-08
国际标识:
2022-058H
轨道中心:
EARTH
卫星名称:
吉利星座1组08星
卫星全名:
吉利星座1组08星 (GEESAT-1 08)
卫星状态:
在轨 (已飞行1562 天)
发射日期:
2022-06-02 UTC
国别 :
中国 (CN)
星等 :
--
该卫星已列入 空间交会检测服务 Space Conjunction Data Service (SCDS) ,当前飞行风险评估等级: 无高风险
轨道信息
数据来源 国际轨道数据 AOE轨道数据
星历时间 2026-09-11T13:56:38+0800
7小时前
查看轨道信息
2026-09-10T22:00:00+0800
22小时前
查看轨道信息
半长轴 7002.456km 7002.452km
偏心率 0.0019568 0.0019301
轨道倾角 49.993° 49.992°
近地点辐角 260.664° 258.559°
升交点赤经 164.031° 167.100°
平近点角 99.208° 155.427°
近地点 610.616km 610.799km
远地点 638.022km 637.831km
周期 97.193分钟 97.193分钟
每日圈数 14.815872 14.815884
详细信息
平衡模式:
三轴稳定
覆盖范围:
全球
运营商:
时空道宇科技有限公司
运营商所在国:
中国
制造商(研发单位):
时空道宇科技有限公司
制造商所在国:
中国
使用方式:
暂无
卫星简介
吉利星座(GeeSAT)也称“吉利未来出行星座”,由吉利旗下时空道宇自主研发,布局硬核科技生态,赋能智慧出行、无人系统、智慧城市等领域,并将全面提升吉利控股旗下极氪、领克、远程新能源商用车等品牌的用户智能出行体验。通过“吉利未来出行星座”建设,吉利控股集团将构建天地一体化高精时空信息系统。该卫星仍在工作。
2D轨道图
3D轨道图
轨道高度分析图
轨道倾角分析图
轨道综合分析图
查看轨道综合分析图
与全量物体交会距离演化趋势
与全量物体交会风险概率演化趋势